• In Deutschland
  • Länderverzeichnis
  • Für 7 Tage
  • Wassertemperatur
  • Satellitenkarten
  • Wetterkarte
  • Widgets
  • user-avatar
    Anmelden

    Stündliche Wetter Fuqing

    Heute, 19 Juni, Dienstag

    Zeit Temperatur Niederschläge Wind Luftdruck Luftfeuchtigkeit
    00:00 +27°C° 1,5 mm 6 m/S 743 mmHg 95%
    01:00 +27°C° 1,5 mm 6 m/S 742 mmHg 96%
    02:00 +26°C° 0 mm 7 m/S 742 mmHg 95%
    03:00 +26°C° 0,8 mm 7 m/S 742 mmHg 96%
    04:00 +26°C° 0,8 mm 6 m/S 742 mmHg 96%
    05:00 +26°C° 0,8 mm 6 m/S 742 mmHg 96%
    06:00 +27°C° 0,7 mm 6 m/S 742 mmHg 96%
    07:00 +27°C° 0,7 mm 5 m/S 742 mmHg 95%
    08:00 +27°C° 0 mm 5 m/S 743 mmHg 94%
    09:00 +28°C° 0,3 mm 5 m/S 743 mmHg 91%
    10:00 +29°C° 0,3 mm 5 m/S 743 mmHg 88%
    11:00 +30°C° 0,3 mm 5 m/S 743 mmHg 85%
    12:00 +30°C° 0,8 mm 6 m/S 743 mmHg 84%
    13:00 +30°C° 0,8 mm 6 m/S 743 mmHg 84%
    14:00 +30°C° 0,8 mm 7 m/S 742 mmHg 84%
    15:00 +30°C° 0,3 mm 7 m/S 743 mmHg 84%
    16:00 +30°C° 0,3 mm 7 m/S 743 mmHg 84%
    17:00 +30°C° 0,3 mm 7 m/S 743 mmHg 84%
    18:00 +29°C° 0,1 mm 7 m/S 743 mmHg 86%
    19:00 +29°C° 0,1 mm 7 m/S 743 mmHg 89%
    20:00 +28°C° 0,1 mm 6 m/S 743 mmHg 92%
    21:00 +28°C° 0,3 mm 6 m/S 744 mmHg 92%
    22:00 +27°C° 0,3 mm 6 m/S 744 mmHg 93%
    23:00 +27°C° 0,3 mm 6 m/S 745 mmHg 93%

    Morgen, 20 Juni, Mittwoch

    Zeit Temperatur Niederschläge Wind Luftdruck Luftfeuchtigkeit
    00:00 +27°C° 0 mm 6 m/S 744 mmHg 94%
    01:00 +27°C° 0 mm 6 m/S 744 mmHg 94%
    02:00 +27°C° 0 mm 6 m/S 744 mmHg 94%
    03:00 +27°C° 0 mm 5 m/S 744 mmHg 95%
    04:00 +27°C° 0 mm 5 m/S 744 mmHg 95%
    05:00 +27°C° 0 mm 5 m/S 744 mmHg 95%
    06:00 +28°C° 0 mm 5 m/S 744 mmHg 93%
    07:00 +28°C° 0 mm 5 m/S 744 mmHg 91%
    08:00 +29°C° 0 mm 5 m/S 744 mmHg 89%
    09:00 +30°C° 0,6 mm 5 m/S 744 mmHg 85%
    10:00 +32°C° 0,6 mm 5 m/S 744 mmHg 81%
    11:00 +33°C° 0,6 mm 5 m/S 744 mmHg 77%
    12:00 +33°C° 0,8 mm 5 m/S 744 mmHg 78%
    13:00 +33°C° 0,8 mm 6 m/S 744 mmHg 78%
    14:00 +33°C° 0,8 mm 6 m/S 743 mmHg 79%
    15:00 +32°C° 2,3 mm 6 m/S 743 mmHg 83%
    16:00 +30°C° 2,3 mm 6 m/S 743 mmHg 87%
    17:00 +29°C° 2,3 mm 6 m/S 743 mmHg 91%
    18:00 +29°C° 1,7 mm 6 m/S 743 mmHg 92%
    19:00 +28°C° 1,7 mm 6 m/S 744 mmHg 93%
    20:00 +28°C° 1,7 mm 6 m/S 744 mmHg 94%
    21:00 +27°C° 0,5 mm 6 m/S 744 mmHg 95%
    22:00 +27°C° 0,5 mm 6 m/S 744 mmHg 95%
    23:00 +27°C° 0,5 mm 6 m/S 745 mmHg 95%

    übermorgen, 21 Juni, Donnerstag

    Zeit Temperatur Niederschläge Wind Luftdruck Luftfeuchtigkeit
    00:00 +27°C° 0,4 mm 5 m/S 744 mmHg 96%
    01:00 +27°C° 0,4 mm 5 m/S 744 mmHg 96%
    02:00 +27°C° 0,4 mm 5 m/S 744 mmHg 96%
    03:00 +27°C° 0,7 mm 5 m/S 744 mmHg 96%
    04:00 +27°C° 0,7 mm 4 m/S 744 mmHg 97%
    05:00 +27°C° 0,7 mm 4 m/S 744 mmHg 97%
    06:00 +27°C° 1,2 mm 4 m/S 744 mmHg 96%
    07:00 +28°C° 1,2 mm 4 m/S 744 mmHg 96%
    08:00 +28°C° 1,2 mm 4 m/S 745 mmHg 95%
    09:00 +28°C° 1 mm 4 m/S 745 mmHg 93%
    10:00 +29°C° 1 mm 4 m/S 745 mmHg 92%
    11:00 +29°C° 1 mm 4 m/S 745 mmHg 90%
    12:00 +29°C° 1,1 mm 4 m/S 745 mmHg 91%
    13:00 +29°C° 1,1 mm 4 m/S 744 mmHg 91%
    14:00 +29°C° 1,1 mm 4 m/S 744 mmHg 91%
    15:00 +29°C° 2,1 mm 4 m/S 744 mmHg 92%
    16:00 +28°C° 2,1 mm 3 m/S 744 mmHg 93%
    17:00 +28°C° 2,1 mm 2 m/S 744 mmHg 94%
    18:00 +28°C° 1,9 mm 2 m/S 744 mmHg 95%
    19:00 +27°C° 1,9 mm 2 m/S 745 mmHg 95%
    20:00 +27°C° 1,9 mm 3 m/S 745 mmHg 95%
    21:00 +27°C° 1,8 mm 2 m/S 746 mmHg 95%
    22:00 +27°C° 1,8 mm 2 m/S 746 mmHg 96%
    23:00 +26°C° 1,8 mm 2 m/S 746 mmHg 96%

    22 Juni, Freitag

    Zeit Temperatur Niederschläge Wind Luftdruck Luftfeuchtigkeit
    00:00 +26°C° 1,2 mm 2 m/S 746 mmHg 96%
    01:00 +26°C° 1,2 mm 2 m/S 746 mmHg 96%
    02:00 +26°C° 1,2 mm 3 m/S 745 mmHg 97%
    03:00 +26°C° 1,6 mm 3 m/S 745 mmHg 97%
    04:00 +25°C° 1,6 mm 3 m/S 745 mmHg 97%
    05:00 +25°C° 1,6 mm 3 m/S 745 mmHg 97%
    06:00 +25°C° 2,1 mm 3 m/S 745 mmHg 97%
    07:00 +25°C° 2,1 mm 3 m/S 746 mmHg 96%
    08:00 +25°C° 2,1 mm 2 m/S 746 mmHg 96%
    09:00 +26°C° 1,5 mm 2 m/S 746 mmHg 96%
    10:00 +26°C° 1,5 mm 2 m/S 746 mmHg 95%
    11:00 +26°C° 1,5 mm 2 m/S 746 mmHg 95%
    12:00 +27°C° 0,8 mm 2 m/S 746 mmHg 94%
    13:00 +27°C° 0,8 mm 2 m/S 746 mmHg 94%
    14:00 +27°C° 0,8 mm 2 m/S 745 mmHg 94%
    15:00 +27°C° 0,8 mm 2 m/S 745 mmHg 94%
    16:00 +27°C° 0,8 mm 2 m/S 745 mmHg 95%
    17:00 +27°C° 0,8 mm 1 m/S 745 mmHg 96%
    18:00 +26°C° 1,2 mm 1 m/S 745 mmHg 96%
    19:00 +26°C° 1,2 mm 1 m/S 746 mmHg 97%
    20:00 +26°C° 1,2 mm 1 m/S 746 mmHg 97%
    21:00 +26°C° 1,4 mm 1 m/S 746 mmHg 97%
    22:00 +26°C° 1,4 mm 1 m/S 746 mmHg 97%
    23:00 +26°C° 1,4 mm 1 m/S 747 mmHg 97%

    23 Juni, Samstag

    Zeit Temperatur Niederschläge Wind Luftdruck Luftfeuchtigkeit
    00:00 +26°C° 0,3 mm 1 m/S 746 mmHg 97%
    01:00 +26°C° 0,3 mm 1 m/S 746 mmHg 96%
    02:00 +26°C° 0,3 mm 2 m/S 745 mmHg 96%
    03:00 +26°C° 0 mm 2 m/S 745 mmHg 96%
    04:00 +26°C° 0 mm 2 m/S 745 mmHg 96%
    05:00 +26°C° 0 mm 2 m/S 745 mmHg 96%
    06:00 +27°C° 0,1 mm 3 m/S 745 mmHg 94%
    07:00 +27°C° 0,1 mm 3 m/S 746 mmHg 93%
    08:00 +28°C° 0,1 mm 4 m/S 746 mmHg 91%
    09:00 +28°C° 0,3 mm 4 m/S 746 mmHg 90%
    10:00 +29°C° 0,3 mm 4 m/S 746 mmHg 89%
    11:00 +29°C° 0,3 mm 4 m/S 746 mmHg 87%
    12:00 +29°C° 0,8 mm 4 m/S 746 mmHg 88%
    13:00 +29°C° 0,8 mm 4 m/S 745 mmHg 88%
    14:00 +29°C° 0,8 mm 4 m/S 745 mmHg 89%
    15:00 +28°C° 0,7 mm 4 m/S 745 mmHg 90%
    16:00 +28°C° 0,7 mm 4 m/S 745 mmHg 91%
    17:00 +28°C° 0,7 mm 3 m/S 745 mmHg 92%
    18:00 +27°C° 0,2 mm 3 m/S 745 mmHg 93%
    19:00 +27°C° 0,2 mm 3 m/S 746 mmHg 94%
    20:00 +27°C° 0,2 mm 3 m/S 746 mmHg 94%
    21:00 +27°C° 0,2 mm 4 m/S 746 mmHg 95%
    22:00 +27°C° 0,2 mm 4 m/S 746 mmHg 95%
    23:00 +27°C° 0,2 mm 4 m/S 746 mmHg 96%

    24 Juni, Sonntag

    Zeit Temperatur Niederschläge Wind Luftdruck Luftfeuchtigkeit
    00:00 +27°C° 0,4 mm 4 m/S 746 mmHg 96%
    01:00 +27°C° 0,4 mm 4 m/S 746 mmHg 96%
    02:00 +27°C° 0,4 mm 4 m/S 745 mmHg 96%
    03:00 +27°C° 0,3 mm 4 m/S 746 mmHg 96%
    04:00 +27°C° 0,3 mm 4 m/S 746 mmHg 95%
    05:00 +27°C° 0,3 mm 4 m/S 746 mmHg 95%
    06:00 +27°C° 0,2 mm 4 m/S 746 mmHg 94%
    07:00 +28°C° 0,2 mm 4 m/S 747 mmHg 92%
    08:00 +28°C° 0,2 mm 4 m/S 747 mmHg 90%
    09:00 +30°C° 0 mm 4 m/S 747 mmHg 84%
    10:00 +32°C° 0 mm 5 m/S 747 mmHg 78%
    11:00 +33°C° 0 mm 5 m/S 747 mmHg 72%
    12:00 +33°C° 0,3 mm 6 m/S 747 mmHg 73%
    13:00 +33°C° 0,3 mm 6 m/S 746 mmHg 74%
    14:00 +33°C° 0,3 mm 6 m/S 746 mmHg 75%
    15:00 +33°C° 0,3 mm 6 m/S 746 mmHg 78%
    16:00 +32°C° 0,3 mm 5 m/S 746 mmHg 81%
    17:00 +30°C° 0,3 mm 5 m/S 746 mmHg 84%
    18:00 +29°C° 0 mm 5 m/S 746 mmHg 86%
    19:00 +29°C° 0 mm 5 m/S 746 mmHg 88%
    20:00 +28°C° 0 mm 5 m/S 747 mmHg 90%
    21:00 +28°C° 0 mm 5 m/S 747 mmHg 91%
    22:00 +28°C° 0 mm 5 m/S 747 mmHg 91%
    23:00 +27°C° 0 mm 5 m/S 747 mmHg 92%
    Mehr zeigen